Home > Weather > Broken Hill > Past weeks

Flag for Australia Past Weather in Broken Hill, New South Wales, Australia — Yesterday and Last 2 Weeks

Now
54 °F

Cool.


Feels Like: 51 °F
Forecast: 39 / 58 °F
Wind: 10 mph from Southwest

Location: Yunta

Current Time: Jul 1, 2016 at 12:25:18 PM

Latest Report: Jul 1, 2016 at 11:30 AM


Visibility: N/A

Pressure: 30.33 "Hg

Humidity: 58%

Dew Point: 39 °F

Location of Broken HillLocation

Past Weather in Broken Hill — Graph

°F

Broken Hill Temperature Yesterday

Maximum temperature yesterday: 62 °F (at 1:30 PM)
Minimum temperature yesterday: 39 °F (at 10:30 PM)
Average temperature yesterday: 48 °F

High & Low Weather Summary for the Past Weeks

 TemperatureHumidityPressure
High62 °F (Jun 30, 1:30 PM)95% (Jun 25, 7:30 AM)30.38 "Hg (Jun 25, 7:30 AM)
Low30 °F (Jun 25, 5:30 AM)42% (Jun 28, 3:00 PM)29.63 "Hg (Jun 21, 4:30 PM)
Average48 °F80%30.01 "Hg
* Reported Jun 16 10:30 AM — Jul 1 10:30 AM, Broken Hill, Weather by CustomWeather, © 2016

Note: Actual official high and low records may vary slightly from our data, if they occured in-between our weather recording intervals... More about our weather records

Advertising

Broken Hill Weather History for the Previous 24 Hours

Scroll right to see more
 ConditionsComfort  
Time TempWeatherWind HumidityBarometerVisibility
10:30 AM
Fri, Jul 1
52 °FCool.8 mph67%30.34 "HgN/A
9:00 AM47 °FCool.6 mph84%30.32 "HgN/A
8:30 AM45 °FCool.7 mph86%30.31 "HgN/A
7:30 AM43 °FQuite cool.7 mph88%30.28 "HgN/A
6:00 AM40 °FChilly.5 mph90%30.24 "HgN/A
5:30 AM41 °FQuite cool.6 mph90%30.22 "HgN/A
4:30 AM42 °FQuite cool.7 mph88%30.21 "HgN/A
3:00 AM41 °FQuite cool.7 mph87%30.19 "HgN/A
2:30 AM40 °FChilly.2 mph89%30.19 "HgN/A
1:30 AM38 °FChilly.6 mph87%30.19 "HgN/A
12:00 AM41 °FQuite cool.5 mph85%30.19 "HgN/A
11:30 PM
Thu, Jun 30
40 °FChilly.3 mph86%30.18 "HgN/A
10:30 PM39 °FChilly.6 mph84%30.16 "HgN/A
9:00 PM45 °FQuite cool.8 mph73%30.14 "HgN/A
8:30 PM47 °FCool.7 mph69%30.14 "HgN/A
7:30 PM50 °FCool.3 mph71%30.12 "HgN/A
6:00 PM52 °FCool.14 mph76%30.06 "HgN/A
5:30 PM54 °FCool.13 mph72%30.05 "HgN/A
4:30 PM54 °FCool.20 mph73%30.00 "HgN/A
3:00 PM60 °FRefreshingly cool.18 mph51%29.97 "HgN/A
1:30 PM62 °FRefreshingly cool.18 mph49%29.97 "HgN/A
12:00 PM60 °FRefreshingly cool.15 mph54%30.00 "HgN/A
Weather by CustomWeather, © 2016

See weather overviewHow to use our weather pages